Location: Unspecified
(43.3830°N, 0.0000°E)
Time: 19:08:32
(UTC+00:00)

Transit 2A - Visible Passes

Search period start: 07 August 2020 00:00
Search period end: 17 August 2020 00:00
Orbit: 591 x 967 km, 66.7° (Epoch: 07 August)

Date Brightness Start Highest point End Pass type
(mag) Time Alt. Az. Time Alt. Az. Time Alt. Az.
07 Aug 9.7 02:41:06 10° N 02:42:03 10° NNE 02:43:00 10° NNE visible
07 Aug 8.7 04:22:02 10° NNW 04:27:35 30° NE 04:32:54 10° ESE visible
07 Aug 6.3 20:44:42 10° SSW 20:50:27 89° WNW 20:56:45 10° NNE visible
07 Aug 8.7 22:30:05 10° W 22:34:39 22° NW 22:39:26 10° NNE visible
08 Aug 9.0 03:48:04 10° NNW 03:53:06 24° NE 03:57:59 10° E visible
08 Aug 6.3 20:10:40 10° SSW 20:16:20 67° ESE 20:22:31 10° NE visible
08 Aug 8.4 21:55:08 10° W 22:00:10 28° NW 22:05:30 10° NNE visible
09 Aug 9.3 03:14:09 10° N 03:18:34 19° NE 03:22:53 10° ENE visible
09 Aug 6.6 19:36:50 10° S 19:42:17 47° ESE 19:48:13 10° NE visible
09 Aug 8.0 21:20:22 10° WSW 21:25:44 35° NW 21:31:30 10° NNE visible
09 Aug 9.5 23:09:01 10° NW 23:11:03 12° NNW 23:13:07 10° N visible
10 Aug 9.4 02:40:19 10° N 02:43:58 15° NNE 02:47:34 10° ENE visible
10 Aug 7.4 04:22:32 10° NNW 04:28:47 53° NE 04:34:40 10° SE visible
10 Aug 7.5 20:45:46 10° SW 20:51:23 46° NW 20:57:27 10° NNE visible
10 Aug 9.4 22:33:16 10° WNW 22:36:22 14° NNW 22:39:32 10° N visible
11 Aug 9.6 02:06:36 10° N 02:09:19 13° NNE 02:12:00 10° NE visible
11 Aug 8.0 03:48:28 10° NNW 03:54:28 40° NE 04:00:08 10° ESE visible
11 Aug 6.9 20:11:20 10° SW 20:17:06 62° NW 20:23:22 10° NNE visible
11 Aug 9.2 21:57:51 10° WNW 22:01:44 17° NNW 22:05:44 10° N visible
12 Aug 9.7 01:33:14 10° N 01:34:36 11° NNE 01:35:57 10° NNE visible
12 Aug 8.4 03:14:27 10° NNW 03:20:04 31° NE 03:25:26 10° ESE visible
12 Aug 6.5 19:37:04 10° SSW 19:42:53 84° WNW 19:49:13 10° NNE visible
12 Aug 9.0 21:22:39 10° W 21:27:10 21° NW 21:31:51 10° N visible
13 Aug 8.7 02:40:29 10° NNW 02:45:37 25° NE 02:50:33 10° E visible
13 Aug 6.4 04:23:17 10° NNW 04:29:40 80° WSW 04:35:35 10° SSE visible
13 Aug 8.7 20:47:40 10° W 20:52:40 26° NW 20:57:55 10° NNE visible
14 Aug 9.0 02:06:34 10° N 02:11:06 20° NE 02:15:29 10° E visible
14 Aug 6.6 03:49:06 10° NNW 03:55:29 76° ENE 04:01:26 10° SE visible
14 Aug 8.3 20:12:51 10° WSW 20:18:13 34° NW 20:23:56 10° NNE visible
14 Aug 9.6 22:01:45 10° NW 22:03:35 11° NNW 22:05:26 10° N visible
15 Aug 9.2 01:32:42 10° N 01:36:31 16° NNE 01:40:13 10° ENE visible
15 Aug 7.1 03:14:58 10° NNW 03:21:15 56° NE 03:27:07 10° SE visible
15 Aug 7.8 19:38:13 10° WSW 19:43:51 44° NW 19:49:55 10° NNE visible
15 Aug 9.4 21:25:56 10° NW 21:28:54 13° NNW 21:31:54 10° N visible
16 Aug 9.4 00:58:58 10° N 01:01:51 13° NNE 01:04:43 10° NE visible
16 Aug 7.6 02:40:55 10° NNW 02:46:57 42° NE 02:52:37 10° ESE visible
16 Aug 6.8 04:24:25 10° NW 04:30:10 39° WSW 04:35:32 10° S visible
16 Aug 9.3 20:50:28 10° WNW 20:54:15 16° NNW 20:58:08 10° N visible
